Simultaneous Nadir Overpasses (SNOs) Predictions

Prediction of SNOs between NPP and TERRA Satellite Orbit:

Table of predicted SNOs for the next 14.0 days since TLE Epoch: 12/17/2022
Index Date (NPP) Time (NPP) Lat,Lon (NPP) SZA (NPP ) Date (TERRA) Time (TERRA) Lat,Lon (TERRA) SZA (TERRA ) Distance(km) Time Diff (sec)
1 12/17/2022 22:56:42 70.35,-168.02 93.64 12/17/2022 22:57:45 70.33,-167.95 93.62 3.23 63
2 12/17/2022 23:47:23 -70.21, -0.49 86.50 12/17/2022 23:47:11 -70.22, -0.45 86.49 2.20 12
3 12/18/2022 00:37:54 69.39, 168.04 92.67 12/18/2022 00:36:46 69.48, 166.19 92.79 72.82 68
4 12/20/2022 11:50:41 70.36, -1.53 93.71 12/20/2022 11:51:52 70.38, -1.43 93.72 4.05 71
5 12/20/2022 12:41:22 -70.22, 166.01 86.44 12/20/2022 12:41:19 -70.22, 165.98 86.44 1.05 3
6 12/20/2022 13:31:59 69.73, -25.94 93.07 12/20/2022 13:30:48 69.81, -26.93 93.16 39.17 71
7 12/23/2022 00:44:45 70.64, 164.53 94.01 12/23/2022 00:45:56 70.57, 165.29 93.92 29.39 71
8 12/23/2022 01:35:21 -70.24, -27.50 86.41 12/23/2022 01:35:26 -70.24, -27.53 86.41 1.13 5
9 12/23/2022 02:26:03 70.01, 140.15 93.36 12/23/2022 02:24:51 70.05, 139.86 93.41 11.86 72
10 12/25/2022 13:38:48 70.93, -29.43 94.27 12/25/2022 13:39:57 70.85, -27.84 94.15 58.76 69
11 12/25/2022 14:29:19 -70.26, 138.97 86.43 12/25/2022 14:29:32 -70.24, 138.93 86.45 2.32 13
12 12/25/2022 15:20:03 70.14, -53.54 93.45 12/25/2022 15:18:55 70.17, -53.52 93.48 2.95 68
13 12/28/2022 02:32:52 71.22, 136.59 94.49 12/28/2022 02:33:58 71.16, 139.10 94.36 90.40 66
14 12/28/2022 03:23:18 -70.28, -54.56 86.50 12/28/2022 03:23:38 -70.28, -54.57 86.50 0.45 20
15 12/28/2022 04:14:02 70.17, 112.93 93.39 12/28/2022 04:13:02 70.15, 112.91 93.38 2.39 60
16 12/30/2022 16:17:17 -70.32, 111.91 86.60 12/30/2022 16:17:44 -70.30, 111.91 86.62 1.80 27
17 12/30/2022 17:08:00 70.16, -80.53 93.23 12/30/2022 17:07:08 70.17, -80.61 93.25 3.44 52



Historial Predications of SNOs between NPP and TERRA
